Topeka, KS

10:02 AM CST on December 09, 2019 (GMT -0600)
Billard Municipal

Weather History for KTOP - August, 2019

Change the Weather History Date:

Tuesday, August 27, 2019

  Actual Average Record
Temperature  
Mean Temperature 70 °F 76 °F  
Max Temperature 83 °F 87 °F 108 °F (2000)
Min Temperature 57 °F 64 °F 50 °F (1967)
Degree Days  
Heating Degree Days 0 0  
Month to date heating degree days 0 0  
Since 1 June heating degree days 0 8  
Since 1 July heating degree days 0 0  
Cooling Degree Days 5 11  
Month to date cooling degree days 338 346  
Year to date cooling degree days 1217 1188  
Since 1 June cooling degree days 1105 1062  
Growing Degree Days 20 (Base 50)    
Moisture  
Dew Point 59 °F    
Average Humidity 70    
Maximum Humidity 97    
Minimum Humidity 42    
Precipitation  
Precipitation T in 0.14 in 1.88 in (1989)
Month to date precipitation 9.23 3.71  
Year to date precipitation 38.09 26.04  
Snow  
Snow 0.00 in 0.00 in T in (1919)
Month to date snowfall T 0.0  
Year to date snowfall 18.5 11.3  
Since 1 July snowfall T 0.0  
Snow Depth 0.00 in    
Sea Level Pressure  
Sea Level Pressure 29.99 in    
Wind  
Wind Speed 5 mph (WNW)    
Max Wind Speed 17 mph    
Max Gust Speed 24 mph    
Visibility 10 miles    
Events Rain    
T = Trace of Precipitation, MM = Missing Value Source: NWS Daily Summary

Daily Weather History Graph

Daily Weather History Graph

Search for Another Location

Airport or City:

Astronomy

Aug. 27, 2019 Rise Set
Actual Time 6:46 AM CDT 8:00 PM CDT
Civil Twilight 6:18 AM CDT 8:28 PM CDT
Nautical Twilight 5:45 AM CDT 9:01 PM CDT
Astronomical Twilight 5:11 AM CDT 9:35 PM CDT
Moon 3:13 AM CDT (8/27) 6:20 PM CDT (8/27)
Length of Visible Light 14h 09m
Length of Day
13h 14m
Waning Crescent, 11% of the Moon is Illuminated
Aug 27
Waning Crescent
Aug 30
New
Sep 5
First Quarter
Sep 13
Full
Sep 21
Last Quarter

Hourly Weather History & Observations

Time (CDT) Temp. Heat Index Dew Point Humidity Pressure Visibility Wind Dir Wind Speed Gust Speed Precip Events Conditions
12:53 AM 66.0 °F - 64.0 °F 93% 29.89 in 8.0 mi Calm Calm - N/A   Clear
1:53 AM 68.0 °F - 66.0 °F 93% 29.90 in 10.0 mi West 5.8 mph - N/A   Clear
2:53 AM 68.0 °F - 64.9 °F 90% 29.94 in 10.0 mi NW 6.9 mph - N/A   Clear
3:53 AM 64.9 °F - 63.0 °F 93% 29.94 in 10.0 mi West 5.8 mph - N/A   Clear
4:53 AM 64.0 °F - 61.0 °F 90% 29.93 in 10.0 mi West 3.5 mph - N/A   Clear
5:53 AM 61.0 °F - 59.0 °F 93% 29.94 in 10.0 mi SSW 3.5 mph - N/A   Clear
6:53 AM 60.1 °F - 57.0 °F 90% 29.97 in 10.0 mi Calm Calm - N/A   Clear
7:53 AM 62.1 °F - 59.0 °F 90% 30.00 in 10.0 mi Calm Calm - N/A   Clear
8:53 AM 68.0 °F - 60.1 °F 76% 30.01 in 10.0 mi NW 5.8 mph - N/A   Clear
9:53 AM 71.1 °F - 61.0 °F 70% 30.03 in 10.0 mi Calm Calm - N/A   Clear
10:53 AM 75.0 °F - 59.0 °F 57% 30.02 in 10.0 mi North 3.5 mph - N/A   Clear
11:53 AM 78.1 °F - 57.0 °F 48% 30.03 in 10.0 mi Variable 3.5 mph - N/A   Clear
12:53 PM 80.1 °F 80.4 °F 57.0 °F 45% 30.03 in 10.0 mi Variable 3.5 mph - N/A   Clear
1:53 PM 80.1 °F 80.4 °F 57.0 °F 45% 30.04 in 10.0 mi WSW 10.4 mph - N/A   Clear
2:53 PM 82.0 °F 82.0 °F 57.9 °F 44% 30.04 in 10.0 mi West 15.0 mph 20.7 mph N/A   Partly Cloudy
3:53 PM 82.9 °F 82.4 °F 57.0 °F 41% 30.02 in 10.0 mi WNW 12.7 mph 21.9 mph N/A   Clear
4:53 PM 81.0 °F 80.8 °F 55.9 °F 42% 30.03 in 10.0 mi NW 13.8 mph 19.6 mph N/A   Clear
5:53 PM 79.0 °F - 57.0 °F 47% 30.03 in 10.0 mi NNW 11.5 mph - N/A   Clear
6:53 PM 77.0 °F - 55.9 °F 48% 30.02 in 10.0 mi North 5.8 mph - N/A   Clear
7:53 PM 71.1 °F - 57.0 °F 61% 30.03 in 10.0 mi North 3.5 mph - 0.00 in Rain Light Rain
8:53 PM 70.0 °F - 57.9 °F 65% 30.03 in 10.0 mi Calm Calm - 0.00 in   Clear
9:53 PM 70.0 °F - 57.9 °F 65% 30.05 in 10.0 mi Calm Calm - N/A   Clear
10:53 PM 66.0 °F - 57.9 °F 75% 30.06 in 10.0 mi Calm Calm - N/A   Clear